Location: Budapest
(47.4979°N, 19.0402°E)
Time: 07:19:38
(UTC+01:00)

Envisat - Pass Details

Date: 11 October 2017
Orbit: 764 x 766 km, 98.2° (Epoch: 13 December)

Event Time Altitude Azimuth Distance (km) Brightness Sun altitude
Exits shadow 21:30:08 25° 254° (WSW) 1,519 4.8 -34.5°
Maximum altitude 21:30:48 26° 267° (W) 1,493 4.9 -34.6°
Drops below altitude 10° 21:35:01 10° 323° (NW) 2,315 6.2 -35.2°
Sets 21:37:43 0° 336° (NNW) 3,247 7.0 -35.6°
